Location: Unspecified
(51.0000°N, 12.0000°E)
Time: 13:32:13
(UTC+01:00)

ISS - Pass Details

Date: 11 January 2018
Orbit: 402 x 407 km, 51.6° (Epoch: 22 January)

Event Time Altitude Azimuth Distance (km) Brightness Sun altitude
Exits shadow 05:41:09 45° 127° (SE) 568 -2.8 -22.8°
Drops below altitude 10° 05:43:33 10° 113° (ESE) 1,466 0.0 -22.4°
Sets 05:45:38 0° 111° (ESE) 2,326 1.4 -22.1°
